Time,TemperatureF,DewpointF,PressureIn,WindDirection,WindDirectionDegrees,WindSpeedMPH,WindSpeedGustMPH,Humidity,HourlyPrecipIn,Conditions,Clouds,dailyrainin,SoftwareType,DateUTC
2013-07-24 00:02:00,66.0,55.0,-100.00,WNW,286,4.0,5.0,67,-99.99,,,-99.99,,2013-07-24 07:02:00,
2013-07-24 00:11:00,66.0,55.0,-100.00,WNW,286,4.0,5.0,67,-99.99,,,-99.99,,2013-07-24 07:11:00,
2013-07-24 00:32:00,66.0,54.0,-100.00,WNW,283,2.0,4.0,65,-99.99,,,-99.99,,2013-07-24 07:32:00,
2013-07-24 00:52:00,66.0,53.0,-100.00,WNW,284,6.0,8.0,63,-99.99,,,-99.99,,2013-07-24 07:52:00,
2013-07-24 01:02:00,66.0,53.0,-100.00,West,278,6.0,8.0,63,-99.99,,,-99.99,,2013-07-24 08:02:00,
2013-07-24 01:12:00,66.0,53.0,-100.00,WNW,283,5.0,7.0,63,-99.99,,,-99.99,,2013-07-24 08:12:00,
2013-07-24 01:22:00,66.0,53.0,-100.00,West,280,5.0,6.0,63,-99.99,,,-99.99,,2013-07-24 08:22:00,
2013-07-24 01:32:00,66.0,53.0,-100.00,WNW,299,4.0,6.0,62,-99.99,,,-99.99,,2013-07-24 08:32:00,
2013-07-24 01:42:00,66.0,53.0,-100.00,West,263,4.0,5.0,62,-99.99,,,-99.99,,2013-07-24 08:42:00,
2013-07-24 01:52:00,66.0,53.0,-100.00,West,263,4.0,5.0,62,-99.99,,,-99.99,,2013-07-24 08:52:00,
2013-07-24 02:02:00,64.0,56.0,-100.00,SW,218,2.0,3.0,74,-99.99,,,-99.99,,2013-07-24 09:02:00,
2013-07-24 02:12:00,64.0,56.0,-100.00,SW,218,2.0,3.0,74,-99.99,,,-99.99,,2013-07-24 09:12:00,
2013-07-24 02:22:00,64.0,55.0,-100.00,SSW,205,1.0,3.0,73,-99.99,,,-99.99,,2013-07-24 09:22:00,
2013-07-24 02:32:00,63.0,56.0,-100.00,SSW,211,2.0,3.0,77,-99.99,,,-99.99,,2013-07-24 09:32:00,
2013-07-24 02:53:00,63.0,56.0,-100.00,West,267,1.0,2.0,77,-99.99,,,-99.99,,2013-07-24 09:53:00,
2013-07-24 03:02:00,63.0,56.0,-100.00,South,173,0.0,1.0,77,-99.99,,,-99.99,,2013-07-24 10:02:00,
2013-07-24 03:12:00,63.0,55.0,-100.00,West,263,1.0,2.0,76,-99.99,,,-99.99,,2013-07-24 10:12:00,
2013-07-24 03:22:00,63.0,55.0,-100.00,WNW,286,2.0,2.0,75,-99.99,,,-99.99,,2013-07-24 10:22:00,
2013-07-24 03:32:00,63.0,55.0,-100.00,WNW,294,2.0,3.0,76,-99.99,,,-99.99,,2013-07-24 10:32:00,
2013-07-24 03:43:00,63.0,55.0,-100.00,West,273,3.0,4.0,76,-99.99,,,-99.99,,2013-07-24 10:43:00,
2013-07-24 03:53:00,63.0,55.0,-100.00,West,273,3.0,4.0,76,-99.99,,,-99.99,,2013-07-24 10:53:00,
2013-07-24 04:22:00,64.0,55.0,-100.00,West,280,3.0,4.0,73,-99.99,,,-99.99,,2013-07-24 11:22:00,
2013-07-24 04:43:00,64.0,55.0,-100.00,West,275,0.0,1.0,72,-99.99,,,-99.99,,2013-07-24 11:43:00,
2013-07-24 04:52:00,64.0,55.0,-100.00,West,275,0.0,1.0,72,-99.99,,,-99.99,,2013-07-24 11:52:00,
2013-07-24 05:02:00,64.0,55.0,-100.00,West,273,3.0,5.0,72,-99.99,,,-99.99,,2013-07-24 12:02:00,
2013-07-24 05:12:00,65.0,55.0,-100.00,West,264,2.0,2.0,71,-99.99,,,-99.99,,2013-07-24 12:12:00,
2013-07-24 05:22:00,65.0,55.0,-100.00,WSW,256,2.0,3.0,70,-99.99,,,-99.99,,2013-07-24 12:22:00,
2013-07-24 05:32:00,65.0,55.0,-100.00,WSW,256,2.0,3.0,70,-99.99,,,-99.99,,2013-07-24 12:32:00,
2013-07-24 05:42:00,64.0,56.0,-100.00,WSW,242,0.0,1.0,74,-99.99,,,-99.99,,2013-07-24 12:42:00,
2013-07-24 05:52:00,64.0,56.0,-100.00,WSW,242,0.0,1.0,74,-99.99,,,-99.99,,2013-07-24 12:52:00,
2013-07-24 06:02:00,64.0,55.0,-100.00,WNW,285,0.0,1.0,73,-99.99,,,-99.99,,2013-07-24 13:02:00,
2013-07-24 06:11:00,64.0,55.0,-100.00,West,261,2.0,3.0,72,-99.99,,,-99.99,,2013-07-24 13:11:00,
2013-07-24 06:32:00,64.0,55.0,-100.00,NW,321,2.0,4.0,72,-99.99,,,-99.99,,2013-07-24 13:32:00,
2013-07-24 06:43:00,66.0,55.0,-100.00,West,262,1.0,3.0,68,-99.99,,,-99.99,,2013-07-24 13:43:00,
2013-07-24 06:53:00,66.0,55.0,-100.00,West,262,1.0,3.0,68,-99.99,,,-99.99,,2013-07-24 13:53:00,
2013-07-24 07:02:00,67.0,54.0,-100.00,NW,309,1.0,2.0,64,-99.99,,,-99.99,,2013-07-24 14:02:00,
2013-07-24 07:12:00,68.0,55.0,-100.00,SW,217,1.0,2.0,63,-99.99,,,-99.99,,2013-07-24 14:12:00,
2013-07-24 07:22:00,68.0,55.0,-100.00,WSW,245,1.0,2.0,63,-99.99,,,-99.99,,2013-07-24 14:22:00,
2013-07-24 07:32:00,68.0,54.0,-100.00,West,280,3.0,4.0,61,-99.99,,,-99.99,,2013-07-24 14:32:00,
2013-07-24 07:43:00,70.0,54.0,-100.00,West,275,2.0,2.0,57,-99.99,,,-99.99,,2013-07-24 14:43:00,
2013-07-24 07:55:00,70.0,54.0,-100.00,West,275,2.0,2.0,57,-99.99,,,-99.99,,2013-07-24 14:55:00,
2013-07-24 08:02:00,71.0,54.0,-100.00,West,269,3.0,4.0,54,-99.99,,,-99.99,,2013-07-24 15:02:00,
2013-07-24 08:12:00,72.0,54.0,-100.00,West,278,2.0,3.0,53,-99.99,,,-99.99,,2013-07-24 15:12:00,
2013-07-24 08:52:00,75.0,57.0,-100.00,WNW,284,2.0,3.0,53,-99.99,,,-99.99,,2013-07-24 15:52:00,
2013-07-24 09:12:00,76.0,58.0,-100.00,SSW,193,2.0,4.0,53,-99.99,,,-99.99,,2013-07-24 16:12:00,
2013-07-24 09:22:00,76.0,57.0,-100.00,West,281,2.0,3.0,51,-99.99,,,-99.99,,2013-07-24 16:22:00,
2013-07-24 09:32:00,77.0,57.0,-100.00,West,262,3.0,4.0,50,-99.99,,,-99.99,,2013-07-24 16:32:00,
2013-07-24 09:43:00,77.0,57.0,-100.00,WSW,241,3.0,5.0,51,-99.99,,,-99.99,,2013-07-24 16:43:00,
2013-07-24 09:53:00,77.0,56.0,-100.00,SW,227,4.0,6.0,49,-99.99,,,-99.99,,2013-07-24 16:53:00,
2013-07-24 10:12:00,78.0,56.0,-100.00,WSW,246,4.0,7.0,47,-99.99,,,-99.99,,2013-07-24 17:12:00,
2013-07-24 10:22:00,78.0,56.0,-100.00,SW,219,4.0,8.0,47,-99.99,,,-99.99,,2013-07-24 17:22:00,
2013-07-24 10:53:00,79.0,55.0,-100.00,WSW,240,6.0,10.0,44,-99.99,,,-99.99,,2013-07-24 17:53:00,
2013-07-24 11:12:00,80.0,56.0,-100.00,WSW,237,6.0,10.0,44,-99.99,,,-99.99,,2013-07-24 18:12:00,
2013-07-24 11:22:00,80.0,56.0,-100.00,WSW,237,6.0,10.0,44,-99.99,,,-99.99,,2013-07-24 18:22:00,
2013-07-24 11:32:00,81.0,56.0,-100.00,WSW,237,6.0,10.0,43,-99.99,,,-99.99,,2013-07-24 18:32:00,
2013-07-24 11:43:00,82.0,55.0,-100.00,SW,233,7.0,11.0,40,-99.99,,,-99.99,,2013-07-24 18:43:00,
2013-07-24 11:52:00,82.0,56.0,-100.00,SW,233,6.0,11.0,41,-99.99,,,-99.99,,2013-07-24 18:52:00,
2013-07-24 12:02:00,82.0,56.0,-100.00,SW,233,6.0,11.0,41,-99.99,,,-99.99,,2013-07-24 19:02:00,
2013-07-24 12:12:00,82.0,55.0,-100.00,SW,228,7.0,11.0,40,-99.99,,,-99.99,,2013-07-24 19:12:00,
2013-07-24 12:22:00,82.0,55.0,-100.00,WSW,238,7.0,13.0,40,-99.99,,,-99.99,,2013-07-24 19:22:00,
2013-07-24 12:32:00,82.0,55.0,-100.00,WSW,237,7.0,12.0,39,-99.99,,,-99.99,,2013-07-24 19:32:00,
2013-07-24 12:43:00,83.0,55.0,-100.00,SW,231,8.0,13.0,38,-99.99,,,-99.99,,2013-07-24 19:43:00,
2013-07-24 12:53:00,83.0,55.0,-100.00,SW,231,8.0,13.0,38,-99.99,,,-99.99,,2013-07-24 19:53:00,
2013-07-24 13:13:00,84.0,53.0,-100.00,SW,228,10.0,18.0,35,-99.99,,,-99.99,,2013-07-24 20:13:00,
2013-07-24 13:22:00,85.0,53.0,-100.00,WSW,245,11.0,17.0,34,-99.99,,,-99.99,,2013-07-24 20:22:00,
2013-07-24 13:32:00,85.0,53.0,-100.00,WSW,238,11.0,18.0,34,-99.99,,,-99.99,,2013-07-24 20:32:00,
2013-07-24 13:42:00,84.0,53.0,-100.00,WSW,242,12.0,18.0,34,-99.99,,,-99.99,,2013-07-24 20:42:00,
2013-07-24 13:52:00,84.0,53.0,-100.00,WSW,245,10.0,15.0,34,-99.99,,,-99.99,,2013-07-24 20:52:00,
2013-07-24 14:22:00,83.0,54.0,-100.00,NW,306,10.0,14.0,37,-99.99,,,-99.99,,2013-07-24 21:22:00,
2013-07-24 14:32:00,83.0,54.0,-100.00,NW,305,10.0,15.0,37,-99.99,,,-99.99,,2013-07-24 21:32:00,
2013-07-24 14:52:00,84.0,53.0,-100.00,WNW,300,7.0,13.0,35,-99.99,,,-99.99,,2013-07-24 21:52:00,
2013-07-24 15:12:00,84.0,53.0,-100.00,WSW,254,10.0,16.0,35,-99.99,,,-99.99,,2013-07-24 22:12:00,
2013-07-24 15:22:00,85.0,53.0,-100.00,West,272,9.0,15.0,33,-99.99,,,-99.99,,2013-07-24 22:22:00,
2013-07-24 15:32:00,85.0,53.0,-100.00,West,269,10.0,16.0,34,-99.99,,,-99.99,,2013-07-24 22:32:00,
2013-07-24 15:42:00,85.0,53.0,-100.00,WNW,282,10.0,15.0,34,-99.99,,,-99.99,,2013-07-24 22:42:00,
2013-07-24 15:53:00,85.0,53.0,-100.00,WNW,282,10.0,15.0,34,-99.99,,,-99.99,,2013-07-24 22:53:00,
2013-07-24 16:02:00,85.0,53.0,-100.00,WNW,284,10.0,16.0,34,-99.99,,,-99.99,,2013-07-24 23:02:00,
2013-07-24 16:12:00,86.0,54.0,-100.00,West,278,10.0,16.0,33,-99.99,,,-99.99,,2013-07-24 23:12:00,
2013-07-24 16:32:00,85.0,53.0,-100.00,West,280,14.0,21.0,33,-99.99,,,-99.99,,2013-07-24 23:32:00,
2013-07-24 16:52:00,85.0,53.0,-100.00,WNW,286,13.0,20.0,33,-99.99,,,-99.99,,2013-07-24 23:52:00,
2013-07-24 17:02:00,85.0,53.0,-100.00,West,281,12.0,20.0,33,-99.99,,,-99.99,,2013-07-25 00:02:00,
2013-07-24 17:11:00,85.0,54.0,-100.00,West,273,14.0,21.0,35,-99.99,,,-99.99,,2013-07-25 00:11:00,
2013-07-24 17:32:00,84.0,53.0,-100.00,WNW,282,13.0,20.0,35,-99.99,,,-99.99,,2013-07-25 00:32:00,
2013-07-24 17:43:00,85.0,53.0,-100.00,WNW,292,13.0,20.0,33,-99.99,,,-99.99,,2013-07-25 00:43:00,
2013-07-24 17:52:00,84.0,52.0,-100.00,West,280,14.0,22.0,33,-99.99,,,-99.99,,2013-07-25 00:52:00,
2013-07-24 18:02:00,83.0,51.0,-100.00,West,271,16.0,23.0,33,-99.99,,,-99.99,,2013-07-25 01:02:00,
2013-07-24 18:12:00,83.0,52.0,-100.00,West,272,13.0,19.0,34,-99.99,,,-99.99,,2013-07-25 01:12:00,
2013-07-24 18:42:00,82.0,51.0,-100.00,West,278,13.0,20.0,34,-99.99,,,-99.99,,2013-07-25 01:42:00,
2013-07-24 18:52:00,82.0,51.0,-100.00,West,278,13.0,20.0,34,-99.99,,,-99.99,,2013-07-25 01:52:00,
2013-07-24 19:02:00,81.0,50.0,-100.00,West,270,11.0,17.0,34,-99.99,,,-99.99,,2013-07-25 02:02:00,
2013-07-24 19:12:00,81.0,50.0,-100.00,West,270,11.0,17.0,34,-99.99,,,-99.99,,2013-07-25 02:12:00,
2013-07-24 19:33:00,79.0,53.0,-100.00,WSW,258,12.0,17.0,41,-99.99,,,-99.99,,2013-07-25 02:33:00,
2013-07-24 19:43:00,78.0,54.0,-100.00,WSW,249,12.0,15.0,43,-99.99,,,-99.99,,2013-07-25 02:43:00,
2013-07-24 19:52:00,78.0,54.0,-100.00,WSW,249,12.0,15.0,43,-99.99,,,-99.99,,2013-07-25 02:52:00,
2013-07-24 20:02:00,76.0,56.0,-100.00,SW,235,13.0,18.0,50,-99.99,,,-99.99,,2013-07-25 03:02:00,
2013-07-24 20:12:00,75.0,56.0,-100.00,WSW,248,14.0,18.0,52,-99.99,,,-99.99,,2013-07-25 03:12:00,
2013-07-24 20:22:00,73.0,56.0,-100.00,WSW,257,11.0,15.0,55,-99.99,,,-99.99,,2013-07-25 03:22:00,
2013-07-24 20:33:00,73.0,56.0,-100.00,WSW,257,11.0,15.0,55,-99.99,,,-99.99,,2013-07-25 03:33:00,
2013-07-24 20:44:00,72.0,55.0,-100.00,WSW,253,10.0,15.0,56,-99.99,,,-99.99,,2013-07-25 03:44:00,
2013-07-24 20:52:00,72.0,55.0,-100.00,WSW,253,10.0,15.0,56,-99.99,,,-99.99,,2013-07-25 03:52:00,
2013-07-24 21:12:00,70.0,55.0,-100.00,West,259,7.0,9.0,60,-99.99,,,-99.99,,2013-07-25 04:12:00,
2013-07-24 21:22:00,69.0,56.0,-100.00,WSW,253,7.0,9.0,63,-99.99,,,-99.99,,2013-07-25 04:22:00,
2013-07-24 21:32:00,68.0,56.0,-100.00,WSW,255,7.0,9.0,65,-99.99,,,-99.99,,2013-07-25 04:32:00,
2013-07-24 21:43:00,67.0,56.0,-100.00,WSW,249,5.0,7.0,68,-99.99,,,-99.99,,2013-07-25 04:43:00,
2013-07-24 21:53:00,67.0,56.0,-100.00,WSW,249,5.0,7.0,68,-99.99,,,-99.99,,2013-07-25 04:53:00,
2013-07-24 22:02:00,66.0,56.0,-100.00,West,261,5.0,8.0,70,-99.99,,,-99.99,,2013-07-25 05:02:00,
2013-07-24 22:12:00,66.0,57.0,-100.00,West,260,5.0,8.0,72,-99.99,,,-99.99,,2013-07-25 05:12:00,
2013-07-24 22:21:00,66.0,56.0,-100.00,West,263,4.0,6.0,70,-99.99,,,-99.99,,2013-07-25 05:21:00,
2013-07-24 22:32:00,66.0,56.0,-100.00,West,263,4.0,6.0,70,-99.99,,,-99.99,,2013-07-25 05:32:00,
2013-07-24 22:43:00,67.0,55.0,-100.00,WSW,255,5.0,7.0,66,-99.99,,,-99.99,,2013-07-25 05:43:00,
2013-07-24 22:52:00,67.0,55.0,-100.00,WSW,255,5.0,7.0,66,-99.99,,,-99.99,,2013-07-25 05:52:00,
2013-07-24 23:12:00,65.0,56.0,-100.00,West,263,3.0,5.0,73,-99.99,,,-99.99,,2013-07-25 06:12:00,
2013-07-24 23:22:00,65.0,56.0,-100.00,West,263,3.0,5.0,73,-99.99,,,-99.99,,2013-07-25 06:22:00,
2013-07-24 23:32:00,66.0,56.0,-100.00,WNW,283,7.0,9.0,70,-99.99,,,-99.99,,2013-07-25 06:32:00,
2013-07-24 23:42:00,66.0,55.0,-100.00,West,276,7.0,9.0,67,-99.99,,,-99.99,,2013-07-25 06:42:00,
2013-07-24 23:52:00,66.0,55.0,-100.00,West,276,7.0,9.0,67,-99.99,,,-99.99,,2013-07-25 06:52:00,